Regional Weather Roundup
Issued by NWS State College, PA

Home | Current Version | Previous Version | Text Only | Print | Product List | Glossary On
Versions: 1 2 3 4 5 6 7 8 9 10 11 12 13 14 15 16 17 18 19 20 21 22 23 24 25 26 27 28 29 30 31 32 33 34 35 36 37 38 39 40 41 42 43 44 45 46 47 48 49 50
000
ASUS41 KCTP 210203
RWRCTP

REGIONAL WEATHER ROUNDUP
NATIONAL WEATHER SERVICE STATE COLLEGE PA
900 PM EST SAT JAN 20 2018

Note: "fair" indicates few or no clouds below 12,000 feet with no
significant weather and/or obstructions to visibility.

* = STATION THAT DOES NOT REPORT PRECIPITATION /E.G. RAIN...SNOW...ETC/
    THUNDER OR FOG.

PAZ002>004-007>009-013>016-020>023-029>032-210300-
WESTERN PENNSYLVANIA

CITY           SKY/WX    TMP DP  RH WIND       PRES   REMARKS
ERIE           FAIR      30  26  85 SW3       30.06R
MEADVILLE      FAIR      36  27  69 SW9       30.05R
FRANKLIN*      FAIR      37  26  64 SW13      30.05R
NEW CASTLE     FAIR      35  29  78 S3        30.08S
BEAVER COUNTY  NOT AVBL
BUTLER*        FAIR      35  27  72 CALM      30.09R
PITTSBURGH INT FAIR      40  28  62 CALM      30.08R
PITTSBURGH     FAIR      40  27  59 SW8       30.08R
INDIANA*       PTCLDY    37  30  75 W6        30.11R
LATROBE        CLEAR     32  28  86 SW5       30.10R
WASHINGTON CO* FAIR      40  29  64 S5        30.12R
$$

PAZ004>006-010>012-017>019-024>028-033>037-041-042-045-046-049>053-210300-
CENTRAL PENNSYLVANIA

CITY           SKY/WX    TMP DP  RH WIND       PRES   REMARKS
BRADFORD       FAIR      35  26  69 VRB5      30.01R
DUBOIS           N/A    N/A N/A N/A MISG      30.03S
CLEARFIELD     FAIR      39  28  64 SW8       30.04S
JOHNSTOWN      FAIR      40  29  64 W14G26    30.03S
ALTOONA        FAIR      43  31  62 W9        30.05R
STATE COLLEGE  CLEAR     39  28  65 SW7       30.05R
WILLIAMSPORT   FAIR      30  26  85 CALM      30.04R
SELINSGROVE    FAIR      30  26  85 CALM      30.06R
FT INDIANTOWN  FAIR      37  30  74 SW5       30.05R
CAPITAL CITY   FAIR      34  30  85 SW3       30.06R
HARRISBURG     FAIR      31  28  89 CALM      30.06R
YORK           FAIR      31  29  92 CALM      30.05R
$$

PAZ038>040-043-044-047-048-054-055-060>062-067>071-210300-
EASTERN PENNSYLVANIA

CITY           SKY/WX    TMP DP  RH WIND       PRES   REMARKS
SCRANTON       FAIR      39  27  62 SW6       30.01R
MOUNT POCONO   FAIR      35  26  69 W10       29.98R
ALLENTOWN      FAIR      41  28  60 W7        30.03S
QUAKERTOWN*    FAIR      45  28  53 MISG      30.04S
READING        FAIR      40  31  70 CALM      30.05R
LANCASTER      FAIR      38  32  79 W5        30.05R
COATESVILLE    FAIR      37  30  75 W6        30.06R
POTTSTOWN      FAIR      35  27  72 SW6       30.06R
BLUE BELL      FAIR      36  30  80 CALM      30.06S
DOYLESTOWN     FAIR      42  27  55 W5        30.03R
WILLOW GROVE   NOT AVBL
NORTH PHILA    FAIR      44  30  57 SW3       30.07R
PHILADELPHIA   MOCLDY    41  29  62 W3        30.06R
$$




USA.gov is the U.S. government's official web portal to all federal, state and local government web resources and services.